Wind_Speed
17 20 22 22 20 18 16 15 13 12 13 14 13 12 12 12 12 11 10 8 7 7 9 10 11 11 11 12 11 10 9 8 8 7 6 6 6 5 4 4 3 2 1 1 1 1 1 1 2 3 3 3 3 3 3 4 4 4 5 5 5 6 7 8 8 8 7 7 8 8 8 8 8 8 9 11 11 13 15 16 16 17 17 17 16
16 20 23 22 20 20 19 18 18 17 16 15 15 14 15 15 14 13 12 10 9 9 9 10 11 11 12 12 12 12 12 10 10 10 9 8 8 8 8 7 7 7 6 4 3 3 3 3 2 2 2 0 2 2 3 3 3 3 4 5 5 5 5 6 8 10 10 10 11 12 12 12 12 11 11 12 12 11 11 11 11 12 12 13 13
16 19 21 21 21 21 21 20 21 21 19 18 17 17 17 17 17 16 14 12 11 11 10 8 9 10 10 11 11 13 14 14 13 12 11 10 9 10 10 10 9 10 10 9 8 7 6 6 5 3 2 2 1 1 1 1 0 1 3 3 3 3 5 6 8 11 13 14 14 14 15 15 15 14 14 14 13 13 13 13 13 13 13 13 14
16 18 20 21 21 21 22 22 21 20 19 18 19 21 21 20 19 18 16 14 13 13 13 13 13 14 14 14 14 14 14 15 15 14 14 13 13 12 12 13 12 11 12 12 12 12 10 9 9 7 5 4 4 4 4 3 3 3 3 4 5 6 6 7 9 11 14 16 16 16 16 16 16 16 16 16 15 14 15 15 15 15 15 15 15
12 15 18 20 20 20 20 21 20 19 19 19 21 23 23 21 21 20 19 18 16 16 17 17 17 17 18 18 17 15 16 17 16 16 17 18 18 16 16 15 14 13 13 13 14 15 14 12 11 11 9 8 6 6 6 6 6 6 6 6 7 8 8 8 10 11 14 16 18 17 17 18 18 17 17 17 17 17 16 15 15 16 17 17 16
9 11 13 15 15 16 17 18 17 16 16 17 20 23 22 21 21 20 20 20 18 17 18 19 20 21 23 22 19 18 19 18 17 18 19 20 21 21 20 18 16 15 15 15 15 16 16 15 14 14 12 10 9 8 9 9 9 8 9 9 10 10 10 11 12 13 15 17 18 19 19 19 20 19 18 17 17 18 19 18 17 16 16 17 17
9 8 8 9 9 11 12 11 10 10 10 12 16 18 19 19 19 18 19 19 19 18 18 19 20 21 22 22 20 20 20 17 17 21 22 20 20 23 22 22 20 18 17 17 16 16 17 16 17 16 14 12 11 11 11 11 11 11 11 12 12 13 13 14 15 16 17 18 18 19 20 20 20 21 20 18 17 17 18 20 20 19 18 18 19
9 8 7 6 5 5 6 5 4 5 5 6 7 8 9 10 10 12 15 17 18 19 19 19 18 19 20 21 21 22 21 20 21 24 24 21 21 23 23 24 24 22 19 18 17 17 17 18 19 18 16 14 13 12 13 13 12 12 13 14 15 15 16 16 17 18 18 19 19 20 21 21 21 21 21 21 20 19 19 21 24 24 24 24 24
9 9 7 6 6 6 5 4 3 4 3 3 3 2 2 3 3 6 8 10 11 12 14 15 16 18 21 23 24 24 23 24 24 24 25 24 25 25 24 24 25 24 21 19 19 19 18 20 21 21 19 16 14 13 13 14 13 14 15 16 17 17 17 18 18 19 19 20 21 21 22 22 22 22 22 22 22 23 24 24 26 28 29 30 29
8 9 7 5 5 6 4 3 2 2 1 1 1 1 1 2 3 4 5 5 6 7 8 10 12 15 18 20 22 22 22 23 23 23 24 25 27 27 25 23 24 25 23 22 21 21 21 22 22 22 20 17 15 15 14 14 14 14 16 18 19 19 20 20 19 20 20 21 21 22 23 24 23 22 23 23 23 25 26 27 29 30 30 32 31
5 8 7 5 5 4 3 3 3 2 2 1 1 2 3 4 4 4 5 6 6 7 9 10 10 11 12 13 16 17 18 19 20 21 22 23 24 27 28 27 24 23 24 24 24 24 24 23 21 21 20 18 17 16 15 15 15 16 17 19 20 20 21 21 21 21 22 23 23 23 25 25 25 24 24 24 24 24 26 27 29 31 31 33 33
3 5 6 5 5 4 3 4 4 4 4 4 4 4 4 5 5 5 6 6 6 6 8 10 11 11 11 12 12 14 14 14 15 17 19 20 22 25 28 30 28 25 24 26 26 25 25 24 21 20 19 19 18 18 17 16 17 17 18 19 20 21 21 21 22 23 23 25 25 26 26 27 27 26 25 25 25 26 27 27 28 30 32 33 36
2 2 2 3 4 4 4 3 3 3 4 5 6 6 7 7 7 8 9 9 9 8 8 8 10 12 14 14 14 14 13 13 13 14 15 17 20 22 24 28 29 26 24 26 28 27 26 24 21 19 19 19 19 19 18 18 19 19 20 20 20 20 21 22 23 24 24 25 27 27 27 27 28 28 27 27 28 29 29 29 29 29 31 32 34
2 1 1 0 1 2 2 2 3 4 5 5 6 6 6 7 8 9 10 10 11 11 11 10 10 11 13 15 16 16 16 15 15 15 15 15 17 19 21 23 24 22 23 26 27 26 25 23 21 20 20 19 18 18 19 20 21 22 21 21 21 21 23 23 23 24 24 25 26 27 27 26 28 29 28 27 28 29 30 31 31 31 32 33 34
2 2 2 3 3 3 3 2 3 4 5 6 6 6 6 6 6 7 8 9 10 11 12 13 13 13 14 14 16 17 17 17 17 16 16 16 17 17 19 21 21 20 22 24 25 24 23 22 21 20 19 19 18 19 19 20 21 21 21 22 23 24 25 25 24 24 24 24 26 27 27 26 27 29 29 29 29 28 29 30 31 33 36 38 38
4 3 3 5 4 4 4 3 4 5 6 7 8 8 8 8 7 8 9 10 11 12 12 13 14 14 15 15 16 17 18 18 19 18 17 18 18 17 18 21 22 21 21 23 24 24 23 22 20 19 18 19 19 19 20 22 23 23 23 24 26 26 27 26 26 26 26 26 27 27 27 27 27 28 29 30 31 31 32 34 34 35 37 40 41
6 5 5 5 5 5 6 6 6 6 7 7 8 8 8 9 9 10 11 11 12 13 13 14 15 15 16 16 17 18 19 20 20 19 19 19 20 20 20 21 22 23 23 24 23 22 20 20 19 19 20 20 20 20 22 23 24 24 25 27 27 28 28 28 28 29 29 29 29 29 29 29 29 29 30 30 31 32 34 37 37 36 37 39 40
9 9 8 8 8 8 9 9 9 9 9 9 10 11 11 12 12 13 13 13 13 14 14 15 17 18 18 18 18 19 20 20 21 20 20 20 20 20 21 22 23 23 23 22 21 19 19 20 21 21 21 20 19 20 21 23 24 26 27 27 28 29 30 30 31 32 32 33 32 32 33 33 33 34 34 33 33 33 34 37 37 35 36 37 38
12 12 12 12 11 11 11 12 13 13 13 13 14 14 15 16 16 15 15 15 15 16 17 18 19 19 19 19 20 20 20 19 20 20 20 20 20 20 21 22 22 22 21 20 20 20 21 21 21 20 19 18 18 20 22 24 25 26 27 28 29 30 31 32 34 35 36 37 37 37 37 36 36 35 34 34 34 33 34 36 36 37 38 39 38
13 13 14 14 13 13 14 14 14 13 13 14 14 14 15 15 16 16 15 15 15 16 18 19 19 19 19 18 18 19 19 18 18 18 18 19 18 18 20 22 22 21 20 19 19 19 20 20 19 18 18 18 20 22 24 25 25 26 27 28 30 31 32 34 35 36 37 38 37 36 35 34 33 32 30 29 29 29 29 30 32 34 34 34 33
13 14 14 15 15 16 15 15 13 12 13 14 15 16 15 15 16 17 16 15 15 17 19 19 20 19 20 20 19 19 18 17 16 15 15 15 16 17 19 20 20 19 18 17 18 18 19 20 20 20 20 21 23 25 25 25 25 26 28 29 31 32 33 34 34 33 33 32 31 30 29 29 28 27 25 24 22 22 22 22 24 26 26 25 25
15 16 16 16 16 16 16 16 16 16 17 18 18 18 17 17 18 18 17 17 18 20 20 20 20 20 20 21 20 19 17 15 14 13 12 12 13 15 17 17 17 17 17 17 18 18 19 20 21 21 22 24 24 24 24 24 26 27 28 29 30 30 29 29 28 27 26 25 25 25 25 25 25 25 25 24 23 21 20 18 18 19 21 22 23
16 17 18 18 18 18 18 18 18 18 18 17 17 18 17 16 17 19 19 20 20 21 22 21 21 22 22 21 19 17 15 13 11 10 10 10 11 12 14 14 16 18 18 18 18 17 19 21 22 23 23 23 22 22 22 24 25 25 26 25 24 24 23 23 22 22 22 22 23 23 23 23 24 25 26 26 25 23 21 20 18 17 18 19 21
18 19 19 19 19 19 18 16 15 15 14 13 14 16 15 15 16 17 18 20 22 22 23 23 23 23 23 21 18 15 13 11 10 9 10 10 11 12 14 15 17 18 18 18 18 18 20 21 22 21 20 19 19 20 20 21 20 20 20 19 19 19 19 19 20 20 22 22 23 23 23 23 24 25 26 25 24 23 22 21 20 19 19 19 20
18 18 18 19 19 19 19 17 16 16 17 17 18 19 18 18 18 17 16 19 22 23 22 23 22 22 21 19 16 14 12 10 10 10 10 12 13 14 15 15 15 16 17 18 18 19 18 17 16 16 16 17 17 17 17 16 16 16 17 17 17 18 19 20 21 22 23 23 23 24 24 24 24 25 25 25 25 24 23 23 22 22 22 22 22
19 19 19 21 22 23 23 23 23 23 23 23 23 22 20 19 20 19 17 18 20 21 22 22 21 20 20 18 15 13 11 10 10 10 10 11 13 13 14 14 15 16 17 17 16 14 13 12 13 14 15 15 14 14 14 15 15 15 16 16 17 19 21 22 22 22 23 23 23 24 24 24 24 25 25 26 26 25 25 25 25 25 25 25 26
20 20 22 23 25 26 26 26 26 25 25 24 23 21 20 19 19 19 19 19 19 20 21 21 21 21 20 17 13 11 9 9 10 10 10 11 13 13 14 14 14 14 13 12 10 9 10 12 13 13 12 11 11 12 14 15 16 16 17 18 20 22 22 21 20 21 22 23 24 25 25 25 26 26 27 28 28 28 28 28 29 29 28 28 29
23 24 26 28 29 30 29 28 27 26 26 26 24 23 23 23 22 22 22 22 22 22 22 23 24 22 18 14 11 9 9 11 12 12 11 11 11 11 10 9 8 7 7 8 9 10 11 11 10 9 9 10 12 14 15 17 18 18 18 20 21 21 19 18 19 20 22 24 25 27 27 28 28 28 28 28 29 29 29 29 30 31 30 30 30
27 28 30 31 31 31 30 29 29 30 31 31 31 30 29 27 26 25 26 25 25 25 23 21 20 17 14 12 12 11 12 14 14 12 10 7 6 5 4 4 5 6 6 7 8 8 8 7 7 8 10 13 15 17 18 18 18 18 18 19 20 20 20 20 22 24 25 25 26 27 27 28 29 29 29 29 29 28 28 27 28 28 27 28 29
28 30 30 30 30 30 30 30 31 32 32 32 30 30 29 27 25 23 23 23 22 21 18 16 14 13 13 12 10 9 11 13 12 9 6 3 2 3 3 4 4 3 4 5 5 4 3 5 7 11 14 17 18 19 18 18 18 18 19 19 19 20 21 22 24 25 26 26 26 27 27 28 29 29 29 30 29 28 27 25 25 24 25 26 27
26 27 28 28 29 30 31 32 31 30 31 31 29 27 24 22 21 21 21 20 19 18 16 14 12 11 12 12 12 11 11 11 9 5 3 1 2 2 3 2 1 2 5 7 6 5 5 7 10 14 16 18 19 18 18 18 17 17 18 18 18 20 22 24 25 26 27 27 27 27 27 27 27 28 28 28 28 27 26 25 24 24 24 25 26
23 25 26 27 29 29 29 28 27 27 28 28 28 26 23 21 20 19 17 16 16 15 14 12 11 10 10 12 15 15 12 9 7 5 4 5 5 5 4 3 3 6 8 8 6 6 7 9 12 16 18 18 17 16 15 15 15 15 17 19 21 22 23 25 27 28 28 27 27 26 26 26 26 26 26 26 26 26 26 26 25 24 24 25 25
22 23 24 25 25 24 21 19 17 18 20 21 23 24 23 22 21 18 15 13 12 12 11 12 14 14 13 12 12 12 11 9 8 7 7 8 7 6 5 5 7 8 8 7 6 7 9 11 15 17 17 16 15 14 13 13 15 17 20 22 24 25 25 26 27 27 26 25 24 24 24 24 25 25 26 25 25 26 26 26 25 24 24 25 25
18 18 17 16 16 14 12 9 9 12 16 19 21 21 20 20 20 20 21 21 20 19 18 16 15 15 14 13 12 12 11 10 10 10 10 9 8 6 5 6 7 7 7 7 8 9 11 13 17 18 16 14 13 14 15 17 19 21 22 24 26 27 26 26 25 25 24 24 23 24 24 23 24 24 25 25 25 25 25 25 25 25 25 25 26
9 8 7 7 6 5 3 3 6 11 15 19 20 21 21 20 21 23 25 25 25 24 22 18 16 14 14 14 13 12 11 10 9 10 11 10 9 7 4 4 5 6 8 9 9 11 12 15 17 17 14 12 13 15 17 19 20 22 24 26 27 27 26 25 24 23 23 23 23 23 23 23 23 23 24 24 24 25 25 25 24 25 25 25 25
2 1 1 2 4 6 8 9 10 14 17 19 20 21 22 23 24 24 24 23 23 23 22 20 18 17 16 15 14 12 11 11 10 10 9 9 8 5 3 4 5 7 9 9 10 11 13 15 16 15 12 12 13 16 18 20 22 24 25 26 26 26 26 25 23 23 23 23 23 22 22 22 22 22 23 24 24 24 24 24 24 24 24 23 24
6 5 4 5 7 10 11 12 14 18 20 22 24 24 25 24 24 22 22 21 21 21 21 20 19 18 17 16 14 13 11 10 10 10 8 6 4 3 4 5 6 7 9 10 11 13 15 15 14 13 12 13 15 18 21 23 25 25 25 25 25 25 24 23 22 22 23 23 23 22 22 22 22 22 22 23 24 23 23 23 23 23 22 22 22
12 10 10 10 11 12 14 16 19 21 23 23 24 24 24 24 23 22 21 21 20 20 20 18 16 16 15 14 13 12 10 10 9 9 6 3 1 3 4 6 6 8 9 11 13 14 14 12 11 11 12 14 17 21 24 25 25 25 25 25 25 24 23 22 22 22 23 23 23 22 22 22 21 20 21 22 22 22 22 21 22 22 22 22 21
13 13 14 16 17 18 19 21 23 24 24 23 23 23 23 23 23 21 20 20 19 18 16 14 13 12 12 11 11 10 10 10 10 8 4 2 1 3 5 6 7 9 10 12 13 13 12 11 11 11 13 16 19 22 24 25 25 25 26 26 25 24 24 24 24 24 24 24 24 23 22 21 20 20 20 20 21 21 21 21 20 21 21 21 19
15 16 16 17 20 21 20 19 19 18 17 17 17 17 17 17 17 17 17 15 14 13 12 10 10 9 9 9 9 8 8 8 8 7 4 3 4 5 6 7 9 9 10 11 12 12 11 11 12 13 16 18 20 22 23 24 26 26 26 26 26 26 25 25 25 26 26 25 24 22 21 21 20 20 19 19 19 19 19 20 19 19 19 18 17
15 15 13 13 15 15 11 9 8 7 8 10 10 10 10 9 10 11 12 11 11 12 12 10 9 9 8 8 8 8 8 7 7 5 4 4 4 4 6 8 7 8 10 11 11 10 11 12 14 15 17 19 21 23 24 25 26 27 28 28 28 28 27 26 26 26 25 24 23 22 21 21 20 19 18 18 18 18 18 18 17 16 16 16 15
15 14 11 11 12 10 7 8 10 10 11 11 11 9 9 9 10 13 14 14 13 13 11 10 10 10 10 11 11 10 8 6 4 3 4 4 2 4 7 7 6 8 10 10 10 9 11 13 15 17 19 21 23 25 27 26 26 27 29 30 30 29 28 27 26 25 25 24 22 22 21 20 19 18 17 17 17 17 16 16 15 14 15 15 14
16 14 13 12 12 10 9 11 14 15 14 14 14 14 14 14 15 16 15 13 11 9 8 8 8 9 11 13 12 10 8 5 4 3 2 1 1 5 7 7 7 9 9 9 8 9 11 13 16 18 20 23 25 27 28 27 26 26 28 30 31 31 29 28 27 25 24 24 24 23 21 20 19 18 17 17 17 16 15 14 13 14 13 13 12
17 15 12 11 10 10 10 10 11 11 11 11 13 15 14 13 13 14 12 10 8 6 5 5 6 8 11 12 11 8 6 4 3 2 2 2 2 5 7 7 7 8 8 7 7 8 11 14 17 19 21 23 26 27 28 28 26 25 26 29 31 31 30 28 27 26 25 25 26 25 22 20 19 18 18 17 16 15 13 12 12 12 11 10 9
18 14 11 11 11 11 11 10 9 8 7 8 10 11 11 10 10 9 7 6 6 5 5 7 8 8 9 9 8 7 5 4 3 1 3 3 3 5 6 7 7 7 6 5 6 8 11 15 17 19 21 23 25 27 28 29 27 24 24 26 30 31 30 28 26 25 24 25 26 25 23 20 19 18 18 17 15 13 12 11 10 9 8 7 7
16 11 10 12 13 12 11 10 7 5 6 8 9 9 9 8 7 6 5 5 4 5 7 9 9 7 6 6 6 5 4 3 1 2 4 4 3 5 6 6 6 6 6 4 4 7 11 15 17 19 21 23 25 26 27 28 27 24 22 24 27 30 30 29 27 25 24 24 25 24 23 21 19 18 19 18 15 12 11 9 8 8 6 4 4
12 10 12 14 15 13 10 8 5 4 7 10 10 10 9 9 8 8 8 7 6 6 6 7 7 7 6 6 6 5 4 3 1 2 4 3 3 5 6 6 6 6 6 4 3 6 10 14 16 17 19 21 24 25 25 26 27 25 23 22 25 28 30 30 29 26 24 23 23 23 23 21 19 19 19 18 15 13 11 9 8 6 4 2 0
11 13 16 16 14 12 10 8 7 7 10 12 11 10 10 10 9 8 8 8 8 8 7 6 6 7 7 7 6 4 4 3 1 2 3 3 3 5 5 6 6 6 5 4 3 5 9 12 14 15 17 20 22 23 23 25 26 26 24 23 23 26 28 29 30 29 25 23 22 22 22 22 20 19 19 18 17 15 13 12 10 7 5 4 4
14 15 16 14 13 11 11 10 10 11 12 12 11 9 9 8 8 8 7 7 7 7 6 5 3 4 5 6 5 4 4 3 2 3 4 3 3 4 5 6 6 6 5 5 4 5 7 10 11 13 15 18 20 21 22 23 25 27 26 24 23 24 26 28 29 29 27 25 23 22 21 21 20 19 18 18 18 17 15 14 13 11 9 8 7
16 16 14 12 11 10 10 10 11 11 11 10 10 9 8 8 8 8 8 8 8 7 6 5 3 2 3 4 4 4 4 2 2 3 4 3 3 4 4 5 6 6 5 4 4 4 6 7 10 12 14 16 18 19 20 21 24 26 27 26 23 23 25 26 28 29 29 26 24 22 22 21 20 19 18 18 18 17 16 15 14 13 12 11 9
15 14 13 11 10 10 11 11 11 10 9 9 9 8 7 7 7 7 7 7 8 8 7 7 6 3 2 3 4 4 3 3 3 4 5 3 3 4 4 4 5 5 4 4 3 4 5 7 10 12 14 15 16 17 18 20 22 23 25 26 24 23 24 26 27 28 29 28 25 23 22 22 21 20 19 18 17 17 16 15 13 12 11 10 9
Wind_Direction
190 195 192 189 184 186 199 206 203 195 189 193 200 204 210 211 209 207 207 217 236 253 268 281 289 294 297 301 304 302 301 302 299 297 288 280 282 281 280 281 294 314 337 171 157 119 85 119 119 90 73 61 56 58 72 80 77 75 73 58 38 23 13 2 351 355 5 356 346 347 338 319 309 302 289 280 275 273 271 271 273 275 276 277 279
188 192 188 187 186 188 196 203 205 203 199 200 202 204 213 217 217 218 216 215 226 242 261 278 285 288 294 301 303 300 299 298 294 294 292 284 277 275 272 267 273 284 284 273 268 263 259 243 202 146 138 338 21 20 22 42 47 38 39 37 26 5 348 342 338 339 348 352 348 345 343 337 333 331 324 315 311 305 298 296 298 295 293 293 292
178 185 187 189 190 190 195 202 206 206 204 204 208 212 218 220 223 231 232 226 227 234 243 256 262 262 269 283 288 285 289 294 292 291 296 294 287 279 274 270 268 272 277 277 272 268 266 259 252 233 218 242 275 309 327 1 31 358 12 10 349 329 326 328 329 330 334 339 342 340 338 335 333 332 328 321 318 317 315 314 312 310 307 305 300
179 187 186 189 192 193 197 203 207 211 215 218 220 221 222 222 225 232 233 228 223 221 225 234 241 247 259 274 277 265 261 267 271 273 279 286 292 289 281 275 270 266 270 272 270 269 268 259 259 264 263 260 260 273 283 281 286 305 320 325 317 314 321 322 320 320 322 326 330 332 331 328 327 328 326 323 321 320 319 316 313 311 311 309 304
172 187 188 192 198 201 205 210 215 223 230 232 228 226 226 225 226 229 233 235 230 223 226 234 239 246 258 271 274 262 249 248 255 264 267 269 276 284 284 278 274 270 267 266 266 268 268 262 258 261 265 266 268 278 287 289 293 300 301 301 302 305 310 311 311 310 311 316 321 324 325 324 323 326 326 323 320 319 318 317 315 313 311 310 307
157 177 189 197 204 210 215 222 229 235 238 235 231 231 233 233 235 241 250 254 251 244 242 244 247 252 260 267 268 260 254 257 267 274 273 267 265 269 274 276 275 273 269 266 264 264 264 262 258 258 263 270 276 281 288 292 293 292 291 293 297 300 304 306 308 309 308 311 315 318 320 321 320 321 323 320 316 316 317 315 312 310 307 303 300
148 156 173 189 200 208 212 217 228 236 236 231 229 233 236 239 244 252 258 260 258 257 256 256 257 258 261 264 262 256 254 260 267 268 269 273 270 264 264 268 271 271 268 265 262 259 258 256 253 256 263 274 282 287 291 294 294 291 289 294 298 301 303 306 306 308 308 309 311 313 314 316 317 316 315 312 308 305 303 300 298 296 293 290 288
135 134 139 146 148 156 166 171 187 209 216 216 219 227 233 237 243 247 251 254 255 260 264 264 265 265 262 262 260 257 254 254 257 257 258 267 272 263 256 257 262 265 265 262 257 252 250 248 248 251 259 272 282 289 294 294 291 290 291 294 297 298 301 303 304 305 305 305 307 308 309 311 313 311 309 307 303 296 289 287 289 290 287 284 282
136 135 137 141 135 125 129 142 146 147 151 156 164 168 197 221 232 238 247 256 261 266 269 266 265 264 263 261 259 258 257 256 257 257 257 260 262 257 251 250 254 257 259 257 252 246 244 244 247 251 260 270 278 285 291 291 290 293 293 293 294 296 298 299 301 302 302 303 305 306 305 307 309 308 307 306 301 295 291 287 285 285 284 282 282
145 143 150 166 164 153 155 167 146 127 142 160 197 224 244 249 259 264 268 280 292 295 288 279 272 266 263 259 257 257 258 258 258 258 259 260 258 252 248 248 248 251 253 252 247 244 243 245 250 257 264 270 277 284 288 288 289 292 291 292 294 297 298 299 300 301 301 302 304 304 304 305 306 306 304 303 299 294 293 291 288 286 285 285 285
167 160 170 174 156 143 153 167 157 155 177 204 252 268 271 268 270 275 277 285 299 306 306 302 295 284 274 266 261 258 258 260 261 260 259 260 257 250 247 247 246 245 249 251 247 244 244 247 254 261 264 268 275 282 284 283 286 288 289 292 295 296 297 297 298 301 303 304 304 304 303 303 305 304 302 301 298 294 293 292 289 288 286 285 286
165 167 177 167 151 154 185 193 191 197 205 209 218 231 248 260 268 276 281 287 292 296 302 304 302 299 292 284 275 267 263 260 262 262 259 258 257 253 251 251 249 245 247 249 247 244 245 248 254 259 261 266 276 280 280 282 286 288 290 294 296 296 296 298 301 305 306 305 304 304 304 305 305 304 303 302 299 296 294 291 288 287 285 284 284
77 114 151 155 165 188 206 202 197 210 225 234 234 234 239 248 256 262 267 274 279 282 291 298 300 299 296 293 288 283 279 273 267 264 261 259 261 261 260 259 256 251 247 244 242 243 246 248 250 254 258 266 275 280 282 286 291 294 295 296 296 295 295 299 303 305 304 303 302 303 305 305 303 303 304 303 300 299 297 294 292 289 286 284 283
26 29 2 296 224 236 251 237 218 225 236 243 246 249 253 259 262 263 265 269 271 272 275 277 281 285 289 291 291 290 289 286 280 270 264 266 270 269 266 265 259 249 242 240 240 242 243 243 246 252 259 265 272 278 283 289 294 295 296 296 295 295 296 298 300 300 299 299 298 299 301 299 297 298 299 297 296 296 297 297 296 293 290 288 286
255 245 270 282 277 287 302 295 260 249 245 242 247 257 266 273 278 278 281 285 285 280 275 271 269 270 274 280 284 284 283 283 282 275 267 269 274 272 268 265 257 243 235 236 240 241 239 239 244 252 258 262 269 277 282 287 291 291 291 292 292 292 293 295 296 296 296 296 296 296 297 295 294 293 294 294 293 293 293 292 291 291 293 293 292
263 259 265 275 281 290 295 289 276 270 268 270 274 276 279 285 285 279 279 283 287 288 287 283 277 270 267 268 272 275 276 277 279 279 273 270 270 271 269 265 257 247 239 234 232 233 235 240 247 253 258 263 271 277 281 285 287 288 288 289 290 291 293 296 297 297 297 298 298 297 297 295 294 293 292 293 292 292 290 287 286 288 289 290 290
275 265 252 256 261 262 263 261 261 266 273 280 284 284 287 288 283 279 277 277 278 280 282 282 279 273 269 266 265 268 272 273 276 278 275 270 269 269 267 260 252 247 242 235 230 230 235 244 252 259 264 270 276 279 282 285 287 288 288 289 291 293 296 298 299 299 300 300 298 297 295 292 290 288 286 286 286 287 286 285 286 287 286 286 288
262 252 247 253 255 254 255 252 250 253 259 265 268 269 273 274 273 273 273 273 274 273 271 269 267 267 266 264 263 266 270 272 272 273 272 270 269 269 265 257 249 242 237 235 236 240 247 253 258 262 267 270 274 279 283 285 286 286 288 289 291 293 296 298 298 298 298 297 295 293 291 289 287 285 284 284 282 281 280 280 283 283 282 282 285
260 259 260 263 263 261 259 259 262 265 266 267 268 269 273 274 273 271 271 271 269 266 265 264 264 266 266 265 264 267 271 272 269 267 268 267 266 266 262 255 247 241 236 237 243 251 256 259 259 261 262 264 269 276 280 281 282 283 285 287 289 291 294 295 296 296 296 295 295 294 293 291 290 289 288 286 284 281 277 276 275 275 276 278 280
272 270 268 269 268 266 267 271 276 276 272 269 268 271 277 277 274 274 277 276 268 262 262 262 264 267 270 270 270 270 271 272 267 263 262 263 263 263 257 251 247 244 242 243 249 255 258 258 255 253 255 260 267 273 275 275 278 280 283 286 288 290 292 293 294 295 295 296 296 296 296 297 297 297 296 293 289 286 281 276 271 269 272 276 279
271 269 269 271 271 272 274 274 271 266 264 264 262 262 267 271 271 273 272 267 260 258 260 263 265 268 271 273 274 274 274 273 269 263 260 258 258 256 249 245 244 246 248 251 253 250 248 249 248 251 258 265 270 273 274 277 279 282 284 287 289 291 293 293 294 295 295 297 298 300 302 305 307 308 308 305 302 297 293 286 277 269 266 270 278
269 270 271 273 275 277 275 268 264 265 267 267 265 263 263 264 267 269 266 260 257 257 260 264 267 269 271 273 275 276 277 275 269 263 258 254 252 250 246 245 249 252 253 251 248 244 245 250 254 259 265 270 273 277 281 283 284 286 287 289 290 291 293 294 296 299 301 303 306 307 311 315 317 318 319 318 316 313 309 303 293 282 269 262 265
270 272 274 276 279 280 279 276 276 277 276 273 270 266 265 264 266 268 265 259 255 256 259 261 264 267 270 273 275 276 277 272 261 252 248 248 250 252 252 254 257 257 253 249 248 249 253 257 262 267 272 276 280 284 285 286 287 289 290 292 294 296 298 301 304 307 308 309 310 312 316 320 320 319 319 319 319 318 315 311 308 304 294 279 267
274 276 277 281 282 281 280 280 278 273 269 266 264 262 263 264 266 270 268 257 252 254 257 259 262 265 268 271 274 273 269 261 253 251 254 254 253 253 252 251 252 254 253 253 254 257 259 263 269 274 279 284 287 288 288 290 291 294 297 300 302 303 304 306 308 309 309 312 314 317 319 320 319 317 316 315 315 313 311 308 306 304 303 298 289
276 278 279 281 281 277 273 270 266 264 263 264 266 266 266 263 263 269 271 258 251 253 255 256 258 261 264 269 270 265 259 257 258 260 261 256 250 246 244 245 247 251 253 255 257 259 264 270 275 280 286 290 292 293 293 293 294 297 301 304 305 306 306 306 306 307 309 312 314 315 315 315 314 312 312 312 311 308 306 304 302 299 296 295 293
279 281 280 278 276 274 272 269 267 268 269 270 272 272 271 266 263 266 267 257 248 247 249 250 254 260 264 265 260 254 255 259 254 248 246 244 239 235 233 236 241 247 251 255 259 263 271 277 283 290 295 298 298 296 295 296 298 299 302 303 304 304 303 302 304 306 307 308 308 308 309 309 307 304 303 303 302 302 301 299 297 295 294 292 290
282 278 276 274 271 272 274 273 272 272 271 270 270 269 267 264 260 259 258 253 248 246 248 253 259 262 261 256 251 250 254 247 231 224 230 231 225 225 231 236 242 249 255 261 268 278 288 294 297 300 300 299 298 298 300 302 301 300 298 297 296 296 298 300 304 308 310 310 308 307 308 307 305 302 299 296 295 294 294 294 293 292 291 290 289
278 274 273 273 273 274 273 271 268 268 268 267 265 263 262 259 257 255 254 254 255 257 260 262 261 259 256 254 253 250 238 222 210 208 215 220 219 223 232 241 253 268 281 292 300 303 303 301 296 294 296 302 306 305 303 300 298 297 296 296 298 303 307 310 311 311 312 311 309 307 306 305 304 304 301 298 294 291 289 288 288 288 288 288 286
273 272 273 274 273 271 269 267 266 268 270 270 267 265 263 261 260 257 256 257 261 263 264 260 255 254 256 256 256 247 225 207 198 195 196 202 213 227 246 268 285 299 307 312 314 309 298 289 290 303 316 320 318 312 307 305 305 307 307 308 310 313 315 315 314 312 311 309 306 304 303 302 302 302 302 300 297 294 291 289 287 288 288 286 284
272 274 274 273 271 268 268 270 272 271 270 268 266 264 262 260 258 257 256 258 259 256 253 250 251 257 256 245 237 233 214 193 180 176 173 177 231 268 280 277 278 296 322 337 344 336 314 317 327 331 329 325 320 316 313 313 314 313 312 312 313 314 314 313 312 310 307 305 303 302 302 302 302 302 302 301 300 297 295 293 291 290 288 285 283
275 276 276 275 276 276 276 275 273 268 263 260 259 259 257 254 253 252 251 253 252 247 247 247 245 245 238 214 188 178 182 176 163 158 162 177 221 231 216 202 194 16 12 14 18 11 357 347 338 331 327 323 319 318 318 319 318 315 315 316 317 317 317 316 314 312 309 307 305 304 303 303 303 303 302 302 301 300 299 297 295 293 290 287 285
281 281 283 285 285 283 279 275 269 262 256 252 251 251 250 248 244 238 234 237 238 235 233 225 202 186 188 183 166 159 163 163 154 153 161 162 163 157 138 110 59 33 29 29 20 360 349 341 330 326 325 323 321 323 326 330 331 329 328 326 323 321 319 318 317 314 311 308 307 305 304 304 305 304 304 304 304 303 302 300 298 295 292 290 288
287 288 291 291 290 287 283 276 263 251 243 241 242 242 241 239 231 214 192 184 188 183 173 166 158 152 152 154 151 152 156 153 141 133 132 132 128 113 89 61 40 29 25 18 358 343 339 332 326 325 326 328 331 336 340 341 339 336 332 328 325 323 322 321 319 315 312 310 308 306 306 306 306 306 306 306 305 304 303 300 298 297 295 292 291
291 292 294 294 295 296 294 282 255 233 226 225 224 219 214 214 208 187 163 152 149 144 138 138 139 140 142 148 154 156 151 139 123 112 107 103 99 90 66 41 29 18 4 353 343 337 332 326 325 329 335 340 342 342 341 341 338 334 330 328 326 326 326 324 322 319 317 315 312 310 310 309 308 308 308 307 305 303 302 301 299 298 296 294 293
285 289 294 289 285 284 263 216 205 203 203 202 198 192 184 177 168 155 144 141 140 138 137 137 138 138 141 145 147 142 129 116 106 101 96 88 85 84 63 26 14 1 349 341 332 327 326 326 328 334 339 343 343 341 340 338 335 332 330 329 329 329 329 328 327 325 323 320 316 315 313 311 310 310 309 307 306 304 302 301 300 298 296 294 293
229 269 277 224 186 157 144 147 158 165 166 164 161 154 147 141 137 135 134 135 137 138 138 138 139 139 138 135 130 120 109 98 92 91 90 83 79 78 53 16 3 346 336 330 327 329 330 328 328 332 339 344 344 343 341 339 335 334 334 333 332 332 331 332 331 329 327 324 321 319 316 314 312 312 310 308 306 305 303 301 299 297 296 294 292
101 97 122 148 150 142 134 131 134 137 136 133 132 131 130 130 131 132 134 135 136 137 137 137 137 137 135 130 122 111 104 100 94 91 92 90 75 46 14 0 346 332 330 335 338 338 334 328 328 337 348 352 350 348 347 345 342 340 339 339 337 335 334 335 336 334 331 328 325 324 322 318 315 314 313 310 307 305 303 301 300 299 297 295 293
103 103 111 118 124 126 124 121 121 122 122 122 124 127 129 129 129 131 133 135 135 134 134 134 132 130 130 131 126 115 108 112 113 110 107 107 59 4 345 333 331 336 343 344 341 337 335 338 348 359 2 359 355 352 350 349 348 347 345 343 341 339 339 340 340 340 337 334 331 328 326 322 320 317 315 310 307 304 303 301 301 301 299 296 294
120 115 113 115 116 115 114 115 116 115 117 119 123 126 127 128 129 133 138 139 138 136 134 132 128 122 122 129 132 126 120 126 137 142 150 184 267 307 315 327 345 353 349 342 340 343 352 6 18 20 12 3 358 355 353 353 354 353 351 348 345 344 346 346 345 344 342 339 336 333 330 327 324 320 315 310 307 304 303 302 302 300 298 295 293
131 123 120 123 123 117 111 110 111 111 116 123 127 132 135 136 139 142 140 136 136 137 135 133 129 123 117 119 127 132 135 143 155 166 182 222 259 290 321 345 355 351 343 345 352 3 15 27 32 27 18 10 5 2 0 1 1 359 357 354 351 349 349 349 347 346 345 342 340 337 334 332 328 323 317 313 310 306 303 300 300 299 295 292 291
134 127 125 132 135 130 120 112 110 114 127 136 141 149 156 156 157 156 150 141 136 136 134 128 121 119 121 126 135 147 150 150 158 176 210 244 269 316 352 360 355 348 351 0 9 18 28 36 37 33 25 18 12 10 8 7 5 3 2 359 356 352 351 350 350 349 348 346 344 341 338 335 332 326 322 319 315 310 302 296 296 298 293 288 288
136 133 134 136 137 135 129 123 123 125 128 129 131 139 145 142 142 146 148 144 138 132 124 110 101 108 125 141 154 164 168 168 179 214 251 265 296 3 10 5 359 1 7 12 19 28 37 43 43 37 29 23 19 16 13 9 7 6 4 2 359 356 353 352 353 354 352 350 349 346 342 340 336 332 329 327 322 315 303 294 293 298 296 290 285
134 133 135 131 127 128 130 128 127 128 126 122 123 127 127 123 124 130 135 136 130 119 107 99 98 114 137 152 163 172 181 195 222 244 255 261 23 21 14 8 7 10 13 17 24 35 46 51 48 41 32 26 23 19 15 10 7 6 5 4 2 360 357 356 357 357 356 354 353 351 349 348 344 340 337 333 328 319 308 299 298 301 300 293 285
134 136 141 137 131 132 133 126 122 125 125 123 128 135 137 132 127 125 123 120 115 109 112 121 120 127 143 157 169 178 191 221 249 238 172 117 53 24 15 12 13 14 15 19 27 41 52 53 48 42 35 29 25 20 16 12 9 6 4 4 4 3 2 1 360 359 358 357 355 355 354 353 350 346 344 341 336 327 317 313 312 307 301 297 290
137 138 143 144 141 140 137 130 126 133 140 140 137 137 139 138 134 129 127 126 126 130 142 144 138 134 145 162 175 184 200 231 252 194 143 119 64 29 19 17 17 18 21 25 34 48 54 52 46 40 34 29 24 20 15 12 10 7 6 6 7 8 8 5 3 2 1 359 358 357 357 355 353 352 351 350 347 340 332 330 331 322 310 303 296
141 137 139 145 149 152 153 151 146 141 146 150 144 132 127 129 129 130 134 136 138 139 142 146 151 157 166 179 191 202 214 237 278 112 127 117 63 28 20 19 21 24 30 34 41 49 53 50 44 37 30 25 22 18 14 11 11 10 10 10 11 13 13 10 8 7 6 2 360 0 1 359 358 359 359 359 359 357 352 350 352 346 332 314 294
147 142 144 149 155 159 159 161 157 131 130 140 141 134 130 132 134 138 142 146 154 163 162 163 173 184 188 192 205 222 236 256 323 98 121 110 53 25 20 21 24 27 34 38 39 46 51 50 42 33 25 21 18 15 11 10 11 12 13 14 13 14 14 13 12 12 11 7 3 3 4 5 4 5 6 7 9 12 13 14 14 6 357 1 354
147 145 147 150 153 152 150 153 157 147 140 141 141 139 140 144 147 152 159 165 173 185 193 196 196 195 191 190 195 203 212 219 200 134 131 109 50 24 20 23 28 31 35 36 36 44 49 48 41 32 24 19 15 11 8 9 11 13 15 17 16 14 14 14 14 14 14 13 9 7 7 9 9 11 13 15 17 20 24 28 31 34 49 75 91
144 144 147 148 145 141 141 146 150 148 147 148 151 152 155 158 160 164 171 176 181 191 205 210 194 170 166 168 166 162 169 181 177 157 149 121 56 28 22 28 34 35 35 36 38 42 44 44 40 33 25 20 14 9 6 8 11 13 15 17 17 15 13 15 16 15 15 17 16 13 12 13 14 16 19 21 22 24 26 30 36 44 55 70 84
141 141 145 147 143 140 147 155 158 157 159 163 166 168 173 180 183 185 189 193 197 204 216 229 232 196 159 157 154 151 156 160 155 156 154 125 61 36 31 34 36 35 35 39 38 34 36 40 40 35 28 21 15 9 7 8 10 12 14 17 18 16 15 16 17 17 16 17 19 19 18 19 20 22 24 25 25 25 26 28 33 40 49 58 68
142 142 145 149 149 150 155 161 166 170 174 178 180 185 195 203 204 200 199 204 211 217 226 234 238 228 189 160 155 155 158 155 149 154 156 136 74 48 40 37 36 34 32 28 20 15 26 38 40 36 30 21 13 10 10 11 10 11 13 17 20 20 18 18 19 19 18 18 20 22 23 24 25 25 27 28 28 28 27 28 30 35 42 50 59
Height
1503 1506 1510 1513 1514 1517 1520 1522 1522 1522 1522 1523 1523 1524 1525 1526 1527 1528 1528 1529 1529 1530 1531 1532 1533 1534 1535 1536 1537 1538 1538 1539 1540 1541 1541 1542 1542 1542 1542 1541 1541 1541 1541 1541 1541 1541 1541 1541 1541 1540 1540 1540 1540 1539 1539 1539 1538 1538 1538 1538 1537 1537 1537 1537 1537 1537 1537 1537 1537 1537 1536 1536 1535 1535 1534 1534 1533 1533 1532 1532 1531 1530 1529 1529 1528
1503 1505 1508 1511 1513 1515 1518 1520 1521 1522 1522 1522 1523 1523 1524 1524 1525 1526 1527 1528 1528 1529 1530 1531 1532 1534 1535 1537 1538 1538 1538 1539 1540 1540 1541 1541 1541 1541 1541 1541 1541 1541 1541 1541 1541 1541 1541 1541 1541 1541 1540 1540 1540 1540 1539 1539 1538 1538 1538 1537 1537 1537 1537 1537 1537 1536 1536 1536 1536 1536 1535 1535 1534 1533 1533 1532 1531 1530 1530 1529 1528 1528 1527 1526 1526
1504 1506 1508 1510 1512 1514 1515 1517 1519 1520 1521 1522 1522 1523 1523 1523 1524 1525 1526 1527 1527 1528 1528 1529 1530 1532 1533 1535 1537 1537 1537 1538 1539 1540 1540 1541 1541 1541 1541 1541 1541 1541 1540 1540 1541 1541 1541 1540 1540 1540 1540 1540 1540 1540 1539 1539 1539 1538 1538 1537 1537 1537 1537 1536 1536 1535 1534 1534 1534 1534 1533 1533 1532 1532 1531 1530 1529 1528 1527 1526 1526 1525 1525 1524 1523
1505 1507 1508 1510 1512 1513 1514 1515 1517 1519 1520 1520 1521 1521 1521 1521 1522 1523 1524 1525 1526 1526 1526 1527 1528 1529 1530 1531 1533 1534 1535 1536 1537 1539 1540 1540 1540 1539 1539 1539 1540 1540 1540 1539 1539 1540 1540 1540 1540 1540 1540 1540 1540 1539 1539 1539 1538 1538 1538 1537 1537 1536 1536 1535 1535 1534 1533 1533 1533 1533 1532 1531 1531 1530 1529 1528 1527 1526 1525 1524 1524 1523 1522 1522 1521
1506 1507 1509 1511 1512 1513 1514 1515 1516 1518 1518 1517 1518 1520 1520 1520 1520 1521 1522 1523 1524 1524 1524 1525 1526 1527 1528 1529 1530 1532 1533 1533 1535 1537 1537 1537 1537 1537 1537 1537 1538 1538 1539 1539 1538 1538 1538 1539 1539 1539 1539 1539 1539 1539 1538 1538 1538 1537 1537 1537 1536 1536 1535 1535 1534 1534 1533 1532 1531 1531 1530 1529 1529 1528 1527 1526 1524 1524 1523 1522 1522 1521 1520 1520 1519
1506 1507 1509 1510 1511 1512 1513 1515 1516 1516 1516 1516 1517 1518 1519 1519 1519 1520 1520 1521 1522 1522 1522 1523 1524 1525 1526 1527 1528 1530 1530 1531 1533 1534 1534 1533 1534 1534 1534 1535 1535 1536 1537 1537 1537 1537 1537 1537 1538 1538 1538 1538 1538 1538 1537 1537 1537 1537 1536 1536 1536 1535 1535 1534 1533 1533 1532 1531 1530 1529 1528 1528 1526 1526 1525 1524 1522 1521 1520 1519 1519 1519 1518 1517 1516
1506 1507 1509 1509 1510 1511 1512 1513 1514 1514 1514 1515 1515 1516 1517 1517 1517 1518 1518 1519 1519 1520 1520 1521 1522 1523 1524 1525 1526 1527 1527 1529 1530 1531 1531 1531 1531 1531 1532 1533 1532 1533 1533 1534 1535 1535 1535 1536 1536 1536 1537 1537 1537 1537 1537 1536 1536 1536 1535 1535 1534 1533 1533 1533 1532 1531 1530 1529 1528 1527 1526 1526 1525 1523 1523 1522 1521 1520 1518 1516 1515 1515 1515 1514 1514
1507 1508 1509 1509 1510 1510 1511 1512 1513 1513 1513 1513 1514 1515 1515 1515 1515 1516 1516 1516 1517 1517 1518 1519 1519 1520 1521 1522 1524 1525 1525 1525 1526 1527 1528 1529 1528 1528 1529 1529 1529 1529 1530 1531 1532 1533 1533 1534 1534 1534 1535 1536 1536 1536 1536 1535 1535 1535 1534 1533 1532 1532 1531 1531 1530 1529 1528 1527 1526 1525 1524 1523 1522 1521 1520 1520 1519 1518 1517 1515 1513 1512 1512 1511 1511
1507 1508 1509 1509 1510 1510 1511 1512 1512 1513 1513 1513 1513 1513 1513 1514 1514 1514 1514 1515 1515 1516 1516 1516 1517 1517 1518 1519 1520 1521 1522 1522 1523 1524 1525 1526 1526 1526 1526 1526 1527 1527 1527 1528 1529 1530 1530 1531 1532 1533 1534 1534 1535 1535 1534 1534 1534 1533 1532 1531 1531 1530 1529 1529 1528 1527 1526 1525 1524 1523 1521 1521 1520 1519 1518 1517 1516 1515 1514 1513 1511 1510 1509 1507 1508
1507 1508 1509 1509 1510 1510 1511 1511 1511 1512 1512 1512 1512 1512 1512 1512 1512 1513 1513 1513 1514 1514 1514 1515 1515 1515 1516 1517 1517 1518 1519 1520 1520 1522 1523 1523 1524 1524 1524 1525 1525 1525 1525 1525 1526 1526 1527 1528 1529 1531 1532 1532 1532 1532 1532 1532 1531 1531 1531 1530 1529 1528 1527 1527 1526 1525 1524 1523 1522 1521 1519 1518 1518 1516 1515 1514 1514 1512 1511 1510 1508 1507 1506 1503 1503
1506 1507 1508 1508 1509 1509 1510 1510 1510 1510 1511 1511 1511 1511 1511 1511 1511 1512 1512 1512 1512 1512 1513 1513 1514 1514 1514 1515 1515 1515 1516 1517 1518 1519 1520 1521 1521 1521 1522 1522 1523 1523 1523 1523 1523 1524 1524 1525 1526 1528 1529 1529 1530 1530 1530 1529 1529 1529 1528 1528 1527 1526 1525 1524 1523 1523 1521 1520 1519 1518 1516 1515 1515 1514 1513 1511 1510 1509 1508 1507 1505 1503 1502 1500 1499
1506 1506 1507 1507 1508 1508 1508 1508 1509 1509 1509 1510 1510 1510 1510 1510 1510 1510 1510 1510 1511 1511 1511 1512 1512 1512 1513 1513 1513 1514 1514 1515 1516 1517 1518 1518 1518 1518 1519 1519 1519 1520 1521 1521 1521 1522 1522 1522 1523 1524 1525 1526 1527 1527 1527 1527 1527 1526 1526 1525 1524 1524 1523 1522 1521 1520 1518 1517 1515 1515 1514 1512 1511 1510 1510 1508 1507 1506 1505 1504 1503 1501 1500 1498 1496
1506 1506 1506 1507 1507 1507 1507 1508 1508 1508 1508 1508 1509 1509 1509 1509 1509 1510 1509 1509 1509 1510 1510 1510 1511 1511 1511 1511 1511 1512 1512 1513 1514 1515 1515 1516 1516 1515 1516 1516 1516 1517 1518 1519 1519 1519 1520 1520 1520 1521 1522 1523 1523 1524 1524 1524 1524 1523 1523 1522 1521 1521 1520 1519 1518 1517 1516 1514 1512 1511 1511 1509 1507 1507 1506 1505 1503 1502 1501 1500 1499 1498 1496 1495 1493
1506 1506 1506 1506 1506 1507 1507 1507 1507 1507 1507 1507 1508 1508 1508 1509 1509 1509 1509 1508 1508 1508 1509 1509 1509 1509 1509 1509 1509 1510 1510 1511 1512 1512 1513 1513 1513 1513 1513 1513 1513 1514 1515 1516 1516 1517 1518 1518 1518 1518 1519 1520 1520 1521 1521 1521 1520 1520 1519 1519 1518 1518 1517 1517 1516 1515 1513 1512 1509 1508 1508 1507 1505 1503 1503 1502 1500 1499 1497 1496 1495 1494 1492 1491 1490
1506 1506 1506 1506 1506 1506 1506 1506 1506 1506 1506 1507 1507 1507 1507 1508 1508 1508 1508 1508 1508 1507 1507 1507 1507 1507 1508 1508 1508 1508 1509 1509 1510 1510 1510 1511 1511 1511 1511 1511 1511 1512 1513 1514 1515 1515 1515 1516 1516 1516 1517 1518 1518 1518 1519 1519 1518 1518 1517 1516 1515 1515 1514 1514 1513 1512 1511 1509 1507 1505 1504 1504 1502 1500 1500 1499 1497 1496 1494 1492 1491 1490 1488 1486 1485
1506 1506 1506 1506 1506 1506 1506 1506 1506 1506 1506 1506 1506 1506 1506 1506 1507 1507 1507 1507 1507 1506 1506 1506 1505 1505 1506 1506 1507 1507 1507 1507 1507 1508 1508 1508 1509 1509 1509 1510 1510 1511 1511 1512 1512 1512 1512 1513 1514 1515 1515 1516 1516 1516 1516 1517 1516 1515 1514 1513 1512 1511 1511 1510 1509 1508 1507 1505 1504 1502 1501 1500 1499 1498 1496 1495 1494 1492 1491 1489 1488 1487 1485 1482 1480
1505 1505 1505 1505 1505 1505 1505 1505 1505 1505 1505 1505 1505 1505 1505 1505 1505 1505 1505 1505 1505 1505 1505 1504 1504 1504 1504 1504 1505 1504 1505 1505 1505 1506 1506 1506 1507 1507 1507 1508 1508 1508 1509 1509 1510 1510 1510 1511 1512 1512 1513 1513 1513 1513 1513 1514 1513 1512 1510 1509 1508 1507 1507 1506 1505 1503 1502 1501 1500 1499 1497 1496 1496 1494 1493 1492 1491 1490 1487 1484 1484 1484 1482 1478 1476
1504 1504 1504 1504 1504 1504 1504 1504 1503 1503 1503 1503 1503 1504 1504 1504 1504 1504 1504 1504 1503 1503 1503 1502 1502 1502 1502 1503 1503 1503 1503 1503 1503 1504 1504 1504 1505 1505 1505 1505 1505 1506 1506 1507 1507 1507 1508 1509 1509 1509 1509 1510 1510 1510 1510 1510 1509 1508 1507 1506 1504 1503 1503 1501 1500 1499 1498 1497 1496 1495 1493 1492 1491 1490 1489 1488 1487 1487 1484 1481 1481 1481 1478 1475 1474
1503 1503 1503 1503 1502 1503 1502 1502 1502 1502 1502 1502 1502 1502 1502 1502 1502 1502 1502 1502 1501 1501 1500 1500 1500 1500 1500 1501 1501 1501 1501 1501 1501 1501 1502 1502 1503 1503 1503 1503 1503 1504 1504 1505 1505 1505 1506 1507 1506 1506 1506 1507 1507 1507 1507 1506 1505 1504 1503 1502 1500 1500 1499 1497 1496 1494 1493 1491 1490 1489 1488 1487 1486 1484 1483 1483 1482 1481 1480 1478 1477 1476 1474 1472 1472
1501 1501 1501 1501 1501 1501 1500 1500 1500 1500 1500 1500 1500 1500 1500 1499 1499 1499 1499 1499 1499 1498 1497 1497 1497 1498 1498 1499 1499 1499 1499 1499 1499 1499 1500 1500 1500 1501 1501 1501 1502 1502 1503 1503 1504 1504 1504 1504 1504 1503 1504 1504 1504 1504 1503 1503 1502 1501 1500 1498 1497 1496 1495 1493 1491 1490 1488 1486 1485 1483 1482 1480 1479 1478 1477 1477 1476 1475 1475 1473 1472 1472 1470 1468 1468
1499 1499 1499 1499 1499 1498 1498 1498 1498 1498 1498 1497 1497 1497 1497 1497 1497 1497 1497 1497 1496 1495 1494 1494 1495 1495 1495 1496 1496 1496 1497 1497 1497 1497 1498 1498 1498 1499 1499 1499 1500 1501 1501 1502 1502 1502 1502 1501 1501 1501 1501 1501 1501 1501 1500 1499 1498 1498 1497 1495 1493 1492 1490 1488 1487 1485 1484 1482 1480 1479 1477 1476 1475 1474 1473 1472 1471 1471 1470 1469 1467 1467 1466 1465 1464
1497 1497 1496 1496 1496 1496 1496 1496 1495 1495 1495 1495 1495 1495 1495 1495 1495 1495 1495 1495 1494 1493 1492 1492 1493 1493 1493 1493 1493 1494 1494 1495 1495 1495 1496 1496 1497 1497 1497 1498 1499 1499 1500 1500 1500 1500 1500 1499 1499 1499 1499 1499 1498 1498 1497 1496 1495 1494 1493 1491 1489 1488 1486 1484 1483 1481 1480 1478 1476 1475 1474 1472 1471 1470 1469 1468 1467 1467 1466 1465 1464 1463 1462 1461 1461
1494 1494 1493 1494 1493 1493 1493 1493 1493 1493 1492 1492 1492 1492 1492 1492 1492 1493 1493 1492 1491 1490 1490 1490 1491 1491 1491 1491 1491 1492 1492 1493 1493 1493 1494 1495 1495 1496 1496 1497 1497 1498 1498 1498 1498 1498 1498 1497 1497 1497 1496 1496 1496 1495 1494 1493 1491 1490 1489 1487 1486 1484 1482 1481 1479 1478 1476 1475 1473 1472 1471 1470 1468 1467 1466 1465 1464 1463 1462 1461 1461 1460 1459 1458 1458
1491 1491 1491 1491 1491 1491 1490 1490 1490 1490 1489 1489 1489 1488 1489 1489 1489 1490 1490 1489 1488 1487 1487 1488 1489 1489 1489 1489 1489 1490 1491 1491 1491 1492 1493 1493 1494 1494 1495 1495 1495 1496 1496 1496 1496 1496 1496 1495 1495 1494 1494 1493 1493 1492 1490 1489 1488 1486 1485 1484 1482 1480 1479 1477 1476 1475 1473 1472 1470 1469 1467 1467 1465 1464 1463 1462 1461 1460 1459 1458 1457 1457 1456 1455 1454
1488 1488 1488 1488 1488 1488 1487 1487 1487 1487 1487 1486 1486 1486 1486 1486 1486 1486 1487 1486 1485 1484 1484 1485 1486 1486 1487 1487 1488 1488 1489 1489 1490 1490 1491 1491 1492 1492 1492 1493 1493 1493 1493 1493 1494 1494 1494 1493 1493 1492 1491 1491 1490 1488 1487 1486 1485 1484 1482 1481 1479 1478 1476 1475 1473 1472 1470 1469 1467 1466 1465 1464 1463 1461 1460 1459 1458 1456 1455 1454 1453 1453 1452 1451 1450
1485 1485 1485 1485 1485 1485 1484 1484 1484 1484 1483 1483 1483 1483 1483 1483 1483 1483 1483 1483 1483 1482 1482 1482 1483 1484 1484 1485 1486 1486 1487 1487 1488 1488 1489 1489 1490 1490 1490 1491 1491 1491 1491 1491 1492 1492 1492 1491 1490 1490 1489 1488 1487 1485 1484 1483 1482 1481 1479 1478 1477 1475 1474 1472 1471 1469 1467 1466 1465 1463 1462 1461 1460 1458 1457 1456 1454 1453 1452 1451 1450 1449 1448 1447 1446
1482 1482 1482 1481 1481 1481 1481 1481 1481 1480 1480 1479 1479 1479 1480 1480 1480 1480 1481 1481 1480 1479 1480 1480 1480 1481 1481 1482 1483 1484 1484 1485 1486 1486 1487 1487 1488 1488 1488 1489 1489 1489 1490 1490 1490 1490 1489 1489 1488 1487 1486 1485 1484 1483 1482 1481 1480 1478 1477 1476 1474 1473 1471 1470 1468 1467 1465 1463 1462 1460 1459 1458 1456 1455 1453 1452 1450 1450 1449 1447 1446 1445 1444 1443 1441
1478 1478 1478 1478 1478 1477 1477 1477 1477 1476 1476 1475 1475 1476 1476 1476 1477 1477 1478 1478 1478 1477 1478 1478 1478 1478 1479 1480 1481 1482 1483 1483 1484 1484 1485 1486 1487 1487 1488 1488 1489 1488 1488 1488 1488 1488 1487 1486 1486 1485 1484 1483 1482 1481 1480 1479 1477 1476 1475 1473 1471 1470 1468 1467 1465 1464 1462 1460 1458 1456 1455 1453 1452 1451 1449 1448 1446 1445 1444 1443 1442 1440 1440 1439 1437
1475 1475 1475 1474 1474 1474 1473 1473 1473 1473 1472 1471 1471 1472 1472 1472 1473 1474 1474 1474 1475 1475 1475 1475 1475 1476 1477 1478 1479 1480 1480 1482 1483 1484 1485 1485 1486 1487 1487 1487 1487 1487 1487 1487 1486 1486 1485 1484 1484 1483 1482 1481 1480 1479 1477 1476 1474 1473 1471 1470 1468 1467 1465 1464 1462 1460 1459 1456 1454 1452 1451 1449 1448 1446 1445 1443 1441 1441 1440 1439 1437 1436 1435 1434 1432
1472 1471 1471 1471 1470 1470 1469 1469 1469 1468 1467 1467 1466 1467 1467 1468 1469 1470 1470 1471 1472 1472 1472 1472 1473 1474 1475 1476 1477 1478 1479 1481 1482 1484 1484 1485 1485 1486 1486 1486 1486 1486 1486 1485 1485 1484 1483 1482 1482 1481 1480 1479 1477 1476 1474 1473 1471 1470 1469 1467 1466 1464 1462 1461 1459 1457 1455 1453 1451 1449 1447 1445 1443 1442 1440 1438 1437 1436 1435 1434 1433 1432 1431 1430 1428
1468 1468 1467 1467 1466 1465 1464 1464 1463 1462 1462 1461 1462 1462 1463 1464 1466 1466 1467 1468 1469 1469 1470 1471 1472 1473 1473 1475 1476 1478 1479 1481 1482 1483 1484 1484 1485 1485 1486 1486 1486 1485 1485 1484 1483 1482 1482 1481 1480 1479 1478 1477 1475 1473 1472 1471 1469 1467 1466 1464 1463 1461 1459 1457 1455 1453 1451 1448 1446 1444 1443 1441 1439 1437 1436 1434 1432 1431 1430 1429 1428 1427 1426 1425 1424
1465 1464 1463 1462 1460 1459 1458 1457 1456 1456 1455 1456 1457 1458 1460 1461 1462 1463 1464 1465 1466 1467 1468 1469 1470 1472 1473 1475 1476 1478 1479 1481 1482 1483 1484 1484 1485 1485 1485 1485 1485 1484 1484 1483 1482 1481 1480 1480 1479 1478 1477 1475 1473 1472 1470 1469 1467 1465 1463 1461 1460 1458 1456 1453 1451 1449 1447 1444 1442 1440 1438 1437 1435 1433 1431 1430 1428 1427 1425 1424 1424 1423 1422 1421 1420
1461 1460 1458 1456 1454 1453 1452 1451 1450 1450 1450 1451 1453 1455 1456 1458 1459 1460 1461 1463 1464 1466 1467 1469 1470 1472 1474 1476 1478 1479 1480 1481 1482 1483 1483 1484 1484 1484 1484 1484 1484 1483 1483 1482 1481 1480 1479 1479 1478 1476 1475 1473 1471 1470 1468 1467 1465 1463 1461 1459 1457 1454 1452 1450 1447 1445 1443 1441 1438 1436 1434 1433 1431 1429 1427 1426 1424 1423 1421 1420 1419 1419 1417 1416 1415
1458 1456 1454 1452 1451 1449 1448 1447 1447 1447 1447 1449 1450 1452 1453 1455 1456 1457 1459 1461 1463 1465 1468 1470 1472 1473 1475 1477 1479 1480 1481 1482 1482 1483 1483 1483 1484 1484 1483 1483 1483 1482 1482 1481 1480 1479 1478 1478 1476 1475 1473 1471 1470 1468 1467 1465 1463 1461 1458 1456 1454 1451 1449 1446 1444 1441 1439 1437 1435 1433 1431 1429 1428 1425 1424 1422 1420 1419 1418 1416 1415 1414 1413 1412 1411
1455 1454 1452 1451 1450 1449 1448 1446 1446 1446 1446 1448 1449 1450 1452 1454 1456 1458 1459 1461 1463 1465 1468 1471 1473 1475 1476 1478 1480 1481 1482 1482 1482 1482 1483 1483 1483 1483 1483 1482 1482 1481 1481 1480 1479 1478 1477 1476 1475 1473 1471 1470 1468 1467 1465 1463 1461 1459 1456 1453 1450 1448 1445 1443 1440 1438 1436 1434 1431 1430 1428 1426 1424 1422 1420 1418 1417 1415 1414 1412 1411 1410 1409 1408 1407
1454 1453 1452 1452 1451 1450 1449 1447 1447 1447 1447 1448 1450 1452 1454 1456 1458 1460 1462 1464 1466 1467 1469 1471 1474 1476 1477 1479 1480 1481 1481 1482 1482 1482 1482 1483 1483 1483 1482 1482 1481 1481 1480 1479 1478 1477 1476 1475 1473 1471 1470 1469 1467 1466 1464 1461 1459 1456 1453 1450 1447 1445 1442 1440 1437 1435 1433 1430 1428 1426 1424 1422 1420 1419 1417 1414 1413 1411 1410 1408 1407 1406 1405 1405 1404
1453 1453 1453 1453 1452 1451 1451 1450 1450 1450 1450 1451 1453 1455 1457 1459 1461 1463 1465 1467 1468 1469 1471 1473 1475 1476 1478 1479 1480 1480 1481 1481 1482 1482 1482 1483 1482 1482 1482 1481 1480 1480 1479 1478 1477 1476 1475 1473 1472 1470 1469 1468 1466 1464 1462 1459 1456 1453 1450 1448 1445 1442 1440 1437 1435 1432 1430 1427 1425 1423 1421 1419 1417 1415 1413 1411 1409 1407 1406 1405 1404 1402 1402 1401 1400
1454 1454 1454 1454 1454 1454 1453 1453 1453 1454 1455 1456 1457 1459 1460 1462 1463 1465 1467 1469 1470 1471 1473 1474 1476 1477 1478 1479 1480 1480 1481 1481 1482 1482 1482 1482 1482 1481 1481 1480 1479 1479 1478 1477 1476 1475 1473 1472 1470 1469 1468 1467 1465 1463 1460 1457 1454 1451 1448 1445 1442 1440 1438 1435 1432 1430 1427 1425 1422 1420 1417 1415 1413 1412 1410 1407 1405 1404 1402 1401 1400 1399 1398 1397 1396
1455 1456 1456 1456 1456 1456 1457 1457 1457 1458 1459 1459 1461 1462 1463 1464 1465 1467 1469 1470 1472 1473 1474 1475 1476 1477 1478 1479 1479 1480 1480 1480 1481 1481 1481 1481 1481 1481 1480 1479 1478 1478 1477 1476 1475 1474 1472 1471 1469 1468 1467 1466 1464 1461 1458 1455 1452 1449 1446 1443 1440 1438 1435 1432 1430 1427 1424 1422 1419 1417 1414 1412 1410 1408 1406 1404 1402 1401 1399 1398 1397 1396 1395 1394 1393
1457 1457 1458 1458 1458 1459 1460 1460 1461 1461 1462 1463 1464 1464 1465 1466 1468 1469 1471 1472 1473 1474 1475 1476 1476 1477 1477 1478 1479 1479 1479 1480 1480 1481 1481 1481 1480 1480 1479 1478 1478 1477 1476 1475 1474 1473 1471 1470 1468 1467 1466 1465 1462 1460 1457 1454 1451 1448 1445 1442 1439 1436 1433 1430 1427 1424 1422 1419 1416 1414 1412 1409 1407 1405 1403 1402 1400 1398 1396 1395 1394 1393 1392 1391 1390
1458 1458 1459 1460 1460 1461 1462 1463 1463 1464 1464 1465 1466 1467 1468 1469 1470 1471 1472 1473 1473 1474 1475 1476 1476 1476 1477 1478 1478 1478 1479 1479 1480 1480 1480 1480 1479 1479 1479 1478 1477 1476 1475 1474 1473 1472 1470 1469 1468 1467 1465 1464 1461 1459 1456 1453 1450 1447 1444 1441 1438 1435 1432 1429 1426 1422 1419 1417 1414 1412 1409 1407 1405 1403 1401 1399 1397 1396 1394 1393 1391 1391 1390 1389 1388
1459 1459 1460 1461 1462 1463 1463 1464 1464 1465 1466 1466 1467 1468 1468 1469 1470 1471 1472 1473 1474 1474 1475 1475 1476 1476 1477 1477 1477 1478 1478 1478 1479 1479 1479 1479 1479 1478 1478 1477 1476 1475 1474 1474 1472 1471 1470 1469 1467 1466 1465 1463 1460 1458 1455 1452 1449 1446 1443 1440 1437 1433 1430 1427 1424 1421 1418 1415 1413 1410 1407 1405 1403 1401 1399 1397 1395 1393 1391 1390 1389 1388 1387 1387 1386
1460 1461 1461 1462 1463 1464 1465 1465 1466 1466 1467 1468 1468 1469 1469 1470 1471 1472 1473 1473 1474 1474 1474 1475 1475 1476 1477 1477 1477 1477 1478 1478 1478 1478 1478 1478 1478 1478 1477 1476 1475 1474 1474 1473 1472 1471 1470 1468 1467 1466 1464 1462 1460 1457 1454 1452 1449 1446 1443 1439 1436 1433 1429 1425 1422 1420 1417 1414 1411 1409 1406 1404 1401 1399 1397 1395 1393 1391 1389 1388 1387 1386 1385 1385 1384
1461 1462 1463 1464 1465 1466 1466 1467 1467 1468 1468 1469 1470 1470 1471 1472 1472 1473 1473 1473 1474 1474 1474 1475 1475 1476 1476 1477 1477 1477 1478 1478 1478 1478 1478 1478 1477 1477 1476 1475 1474 1474 1473 1473 1472 1471 1469 1468 1467 1465 1464 1462 1459 1457 1455 1452 1449 1446 1443 1439 1436 1432 1429 1425 1422 1419 1416 1413 1410 1407 1405 1402 1400 1398 1396 1393 1391 1389 1388 1386 1385 1384 1384 1383 1382
1462 1463 1463 1465 1466 1467 1467 1468 1469 1469 1470 1470 1471 1472 1472 1473 1473 1473 1474 1474 1474 1474 1474 1474 1475 1475 1476 1476 1477 1477 1477 1477 1477 1477 1477 1477 1477 1476 1475 1474 1474 1473 1473 1472 1472 1471 1469 1468 1466 1465 1463 1461 1459 1457 1454 1452 1449 1446 1443 1440 1436 1432 1429 1425 1422 1419 1416 1413 1410 1407 1404 1402 1399 1397 1395 1392 1390 1388 1386 1385 1384 1383 1382 1382 1381
1462 1463 1464 1465 1466 1467 1468 1469 1470 1470 1471 1471 1472 1472 1473 1473 1473 1474 1474 1474 1474 1474 1474 1474 1475 1475 1475 1475 1476 1476 1476 1476 1476 1476 1476 1476 1476 1475 1474 1474 1473 1473 1472 1472 1471 1470 1469 1467 1466 1464 1463 1461 1458 1456 1454 1452 1449 1446 1443 1440 1437 1433 1430 1427 1423 1420 1416 1413 1410 1408 1405 1402 1399 1397 1394 1392 1390 1388 1386 1385 1383 1382 1382 1381 1381
1463 1464 1465 1466 1467 1468 1469 1470 1470 1471 1471 1472 1472 1473 1473 1473 1473 1473 1474 1473 1473 1473 1474 1474 1475 1475 1475 1475 1475 1476 1476 1476 1476 1476 1476 1476 1475 1474 1474 1473 1473 1472 1472 1471 1471 1470 1469 1467 1466 1464 1462 1460 1458 1456 1454 1452 1449 1446 1443 1440 1437 1434 1431 1427 1424 1420 1417 1414 1411 1408 1405 1402 1399 1397 1394 1392 1390 1388 1386 1385 1383 1382 1381 1381 1380
1464 1465 1466 1467 1468 1469 1469 1470 1471 1471 1471 1472 1472 1472 1473 1473 1473 1473 1473 1473 1473 1473 1473 1473 1473 1474 1474 1474 1475 1475 1475 1475 1475 1475 1475 1475 1475 1474 1474 1473 1472 1472 1471 1470 1470 1469 1468 1467 1465 1464 1462 1460 1458 1456 1454 1452 1449 1446 1443 1440 1437 1435 1432 1428 1425 1421 1417 1414 1412 1409 1406 1403 1400 1398 1395 1393 1390 1389 1387 1385 1384 1383 1382 1381 1381
1465 1466 1467 1468 1468 1469 1470 1470 1471 1471 1471 1472 1472 1472 1472 1473 1473 1473 1473 1473 1473 1473 1473 1473 1473 1473 1473 1474 1474 1474 1474 1474 1474 1474 1474 1474 1474 1474 1473 1473 1472 1471 1471 1470 1469 1468 1467 1466 1465 1463 1462 1460 1458 1456 1454 1452 1449 1446 1443 1439 1437 1435 1432 1429 1426 1422 1418 1415 1412 1409 1407 1404 1401 1399 1396 1394 1392 1390 1388 1387 1385 1384 1383 1383 1382
1466 1466 1467 1468 1469 1469 1470 1470 1471 1471 1471 1472 1472 1472 1472 1472 1473 1473 1473 1473 1473 1473 1472 1472 1472 1472 1473 1473 1473 1474 1474 1474 1474 1474 1474 1474 1474 1473 1473 1472 1472 1471 1470 1470 1469 1468 1467 1465 1464 1463 1461 1460 1458 1457 1455 1452 1449 1446 1443 1440 1438 1435 1433 1430 1426 1423 1420 1416 1413 1410 1407 1405 1402 1400 1397 1395 1393 1391 1390 1388 1387 1386 1385 1385 1384
1467 1467 1468 1468 1469 1469 1470 1470 1470 1471 1471 1471 1471 1472 1472 1472 1472 1472 1472 1472 1472 1472 1472 1472 1472 1472 1472 1472 1472 1473 1473 1473 1473 1473 1473 1473 1473 1473 1473 1472 1471 1471 1470 1469 1468 1467 1466 1465 1463 1462 1461 1460 1459 1457 1455 1452 1450 1447 1444 1442 1439 1436 1433 1430 1427 1424 1421 1418 1414 1411 1409 1406 1403 1401 1399 1397 1395 1393 1392 1390 1389 1388 1387 1387 1386